Meath Environmental Platform

Observations for Trim Patrick St

Time AQI Temp °C Hum % Pres Pa CO μg/m³ H₂S μg/m³ NO μg/m³ NO₂ μg/m³ O₃ μg/m³ SO₂ μg/m³ PM1 μg/m³ PM2.5 μg/m³ PM10 μg/m³
Monday 3 August 2026
19:40 4 22.2 56 69,806 0 26.05 0.96 63.11 49.98 6.77 4.57 9.06 9.96
19:39 4 22.2 55 69,656 0 28.51 1.03 69.98 88.63 7.62 3.71 9.09 10
19:38 4 22.3 55 69,485 0 27.42 0.91 54.3 52.29 7.91 2.86 8.35 9.18
19:37 4 22.3 54 69,351 0 28.06 0.96 64.85 70.95 7.35 4.57 9.17 10.08
19:36 4 22.3 54 69,262 0 27.13 0.78 69.26 83.09 7.41 3.71 8.41 9.25
19:35 4 22.4 54 69,179 0 24.6 0.9 53.97 61.56 7.24 2.86 7.67 8.44
19:34 4 22.4 53 69,130 0 23.83 0.92 51.23 59.75 7.35 3.71 9.22 10.15
19:33 4 22.4 53 69,094 0 23.72 1.06 52.09 60.64 6.64 2.86 7.74 8.51
19:32 4 22.4 53 69,053 0 25.6 1.05 74.91 47.19 7.35 3.71 9.22 10.15
19:31 4 22.5 52 69,027 0 22.98 1.12 57.3 67.52 6.83 3.71 9.29 10.22
19:30 4 22.5 52 69,027 0 20.81 1.1 42.39 59.44 6.82 5.43 10.82 11.9
19:29 4 22.5 52 69,027 0 21.66 1.12 51.71 70.31 6.49 5.43 10.82 11.9
19:28 4 22.5 52 68,999 0 23.48 1.1 48.1 59.81 7.46 5.43 10.83 11.92
19:27 4 22.5 51 68,993 0 23.51 1.09 53.05 73.76 6.77 3.71 9.37 10.31
19:26 4 22.6 52 68,985 0 26.5 1.08 58.53 69.24 7.79 3.71 8.57 9.43
19:25 4 22.6 51 68,977 0 20.76 1.03 48.18 70.75 6.69 3.71 8.65 9.51
19:24 4 22.6 51 68,969 0 21.13 1 44.1 68.75 7.33 3.71 9.4 10.33
19:23 4 22.6 50 68,963 0 18.91 1.05 44.17 63.71 6.39 4.57 10.19 11.21
19:22 4 22.7 51 68,957 0 18.83 1.06 36.22 65.95 6.54 4.57 10.19 11.2
19:21 4 22.7 51 68,951 0 21.55 1.07 46.9 81.68 6.88 3.71 8.65 9.52